TimeCST,TemperatureF,Dew PointF,Humidity,Sea Level PressureIn,VisibilityMPH,Wind Direction,Wind SpeedMPH,Gust SpeedMPH,PrecipitationIn,Events,Conditions,WindDirDegrees,DateUTC
12:15 AM,29.8,15.1,54,30.46,10.0,South,5.8,-,N/A,,Clear,190,2014-01-15 06:15:00
12:35 AM,30.0,15.1,54,30.46,10.0,SSW,9.2,-,N/A,,Clear,200,2014-01-15 06:35:00
12:55 AM,30.4,15.6,54,30.46,10.0,SSW,6.9,-,N/A,,Clear,210,2014-01-15 06:55:00
1:15 AM,31.1,15.6,53,30.46,10.0,SSW,4.6,-,N/A,,Clear,210,2014-01-15 07:15:00
1:35 AM,30.6,15.6,54,30.46,10.0,SW,5.8,-,N/A,,Clear,220,2014-01-15 07:35:00
1:55 AM,27.5,14.9,59,30.46,10.0,SW,3.5,-,N/A,,Clear,230,2014-01-15 07:55:00
2:15 AM,26.8,14.7,60,30.47,10.0,Calm,Calm,-,N/A,,Clear,0,2014-01-15 08:15:00
2:35 AM,25.9,14.7,63,30.48,10.0,NW,3.5,-,N/A,,Clear,310,2014-01-15 08:35:00
2:55 AM,32.0,17.4,55,30.49,10.0,NNW,4.6,-,N/A,,Clear,330,2014-01-15 08:55:00
3:15 AM,29.7,17.6,61,30.48,10.0,West,3.5,-,N/A,,Clear,270,2014-01-15 09:15:00
3:35 AM,26.2,16.5,67,30.48,10.0,SSW,3.5,-,N/A,,Clear,210,2014-01-15 09:35:00
3:55 AM,28.6,17.6,64,30.48,10.0,Calm,Calm,-,N/A,,Clear,0,2014-01-15 09:55:00
4:15 AM,22.8,14.9,72,30.48,10.0,Calm,Calm,-,N/A,,Clear,0,2014-01-15 10:15:00
4:35 AM,23.7,15.6,71,30.48,10.0,Calm,Calm,-,N/A,,Clear,0,2014-01-15 10:35:00
4:55 AM,22.8,15.8,74,30.48,10.0,SW,5.8,-,N/A,,Clear,220,2014-01-15 10:55:00
5:15 AM,21.6,15.1,76,30.48,10.0,Calm,Calm,-,N/A,,Clear,0,2014-01-15 11:15:00
5:35 AM,21.9,15.6,77,30.48,10.0,South,6.9,-,N/A,,Clear,190,2014-01-15 11:35:00
5:55 AM,23.5,16.7,75,30.48,10.0,SW,5.8,-,N/A,,Clear,220,2014-01-15 11:55:00
6:15 AM,21.7,16.3,80,30.47,10.0,WSW,6.9,-,N/A,,Clear,240,2014-01-15 12:15:00
6:35 AM,23.9,17.4,76,30.47,10.0,SW,8.1,-,N/A,,Clear,230,2014-01-15 12:35:00
6:55 AM,23.9,18.3,79,30.47,10.0,SW,5.8,-,N/A,,Clear,230,2014-01-15 12:55:00
7:15 AM,23.9,18.3,79,30.47,10.0,WSW,8.1,-,N/A,,Clear,240,2014-01-15 13:15:00
7:35 AM,27.0,20.1,75,30.47,10.0,SW,10.4,-,N/A,,Clear,220,2014-01-15 13:35:00
7:55 AM,24.8,18.9,78,30.47,7.0,SSW,5.8,-,N/A,,Clear,210,2014-01-15 13:55:00
8:15 AM,26.1,19.6,76,30.47,10.0,SSW,4.6,-,N/A,,Clear,210,2014-01-15 14:15:00
8:35 AM,30.6,21.7,70,30.47,10.0,SSW,5.8,-,N/A,,Clear,210,2014-01-15 14:35:00
8:55 AM,34.0,22.8,64,30.49,10.0,Calm,Calm,-,N/A,,Clear,0,2014-01-15 14:55:00
9:15 AM,36.3,23.4,59,30.49,10.0,Calm,Calm,-,N/A,,Clear,0,2014-01-15 15:15:00
9:35 AM,39.9,23.9,53,30.48,10.0,South,3.5,-,N/A,,Clear,180,2014-01-15 15:35:00
9:55 AM,42.1,23.9,49,30.47,10.0,SSW,6.9,-,N/A,,Clear,200,2014-01-15 15:55:00
10:15 AM,45.0,23.9,44,30.47,10.0,SW,9.2,-,N/A,,Clear,220,2014-01-15 16:15:00
10:35 AM,48.4,23.2,37,30.47,10.0,SSW,8.1,-,N/A,,Clear,200,2014-01-15 16:35:00
10:55 AM,50.9,22.5,33,30.46,10.0,SW,12.7,-,N/A,,Clear,230,2014-01-15 16:55:00
11:15 AM,53.1,21.9,30,30.44,10.0,SW,13.8,-,N/A,,Clear,230,2014-01-15 17:15:00
11:35 AM,53.6,21.0,28,30.44,10.0,SW,16.1,-,N/A,,Clear,230,2014-01-15 17:35:00
11:55 AM,54.7,21.9,28,30.43,10.0,SW,15.0,-,N/A,,Clear,230,2014-01-15 17:55:00
12:15 PM,54.5,21.4,28,30.42,10.0,SW,15.0,20.7,N/A,,Clear,230,2014-01-15 18:15:00
12:35 PM,55.6,20.5,26,30.40,10.0,SW,15.0,-,N/A,,Clear,230,2014-01-15 18:35:00
12:55 PM,56.5,19.6,24,30.38,10.0,SW,15.0,21.9,N/A,,Clear,220,2014-01-15 18:55:00
1:15 PM,57.2,19.2,23,30.36,10.0,SW,18.4,-,N/A,,Clear,230,2014-01-15 19:15:00
1:35 PM,57.6,18.7,22,30.34,10.0,SW,15.0,-,N/A,,Clear,230,2014-01-15 19:35:00
1:55 PM,58.5,18.9,21,30.33,10.0,WSW,16.1,24.2,N/A,,Clear,240,2014-01-15 19:55:00
2:15 PM,58.6,18.9,21,30.32,10.0,SW,18.4,25.3,N/A,,Clear,220,2014-01-15 20:15:00
2:35 PM,59.5,18.9,21,30.31,10.0,WSW,17.3,25.3,N/A,,Clear,240,2014-01-15 20:35:00
2:55 PM,59.9,19.0,21,30.30,10.0,WSW,15.0,24.2,N/A,,Clear,250,2014-01-15 20:55:00
3:15 PM,60.6,18.9,20,30.29,10.0,SW,16.1,25.3,N/A,,Clear,230,2014-01-15 21:15:00
3:35 PM,60.1,18.5,20,30.28,10.0,SW,18.4,24.2,N/A,,Clear,230,2014-01-15 21:35:00
3:55 PM,60.8,18.3,19,30.28,10.0,WSW,18.4,-,N/A,,Clear,240,2014-01-15 21:55:00
4:15 PM,61.0,17.2,18,30.27,10.0,SW,18.4,25.3,N/A,,Clear,230,2014-01-15 22:15:00
4:35 PM,61.3,16.3,17,30.27,10.0,WSW,12.7,23.0,N/A,,Clear,240,2014-01-15 22:35:00
4:55 PM,60.8,15.8,17,30.26,10.0,SW,17.3,-,N/A,,Clear,220,2014-01-15 22:55:00
5:15 PM,59.7,15.8,18,30.26,10.0,SW,16.1,23.0,N/A,,Clear,230,2014-01-15 23:15:00
5:35 PM,58.8,10.9,15,30.26,10.0,WSW,11.5,-,N/A,,Clear,250,2014-01-15 23:35:00
5:55 PM,56.8,10.4,16,30.25,10.0,WSW,10.4,-,N/A,,Clear,240,2014-01-15 23:55:00
6:15 PM,54.0,10.2,17,30.25,10.0,WSW,10.4,-,N/A,,Clear,240,2014-01-16 00:15:00
6:35 PM,52.2,9.5,18,30.25,10.0,WSW,6.9,-,N/A,,Clear,240,2014-01-16 00:35:00
6:55 PM,48.2,11.8,23,30.25,10.0,SSW,8.1,-,N/A,,Clear,210,2014-01-16 00:55:00
7:15 PM,47.8,13.1,25,30.25,10.0,SSW,9.2,-,N/A,,Clear,200,2014-01-16 01:15:00
7:35 PM,46.8,13.1,26,30.24,10.0,SSW,8.1,-,N/A,,Clear,210,2014-01-16 01:35:00
7:55 PM,49.1,14.0,25,30.24,10.0,SW,13.8,-,N/A,,Clear,220,2014-01-16 01:55:00
8:15 PM,48.2,14.4,26,30.24,10.0,SW,12.7,-,N/A,,Clear,220,2014-01-16 02:15:00
8:35 PM,47.3,14.5,27,30.24,10.0,SSW,12.7,-,N/A,,Clear,210,2014-01-16 02:35:00
8:55 PM,46.4,14.5,28,30.24,10.0,SSW,10.4,-,N/A,,Clear,200,2014-01-16 02:55:00
9:15 PM,45.3,14.9,29,30.23,10.0,SW,9.2,-,N/A,,Clear,220,2014-01-16 03:15:00
9:35 PM,46.6,14.9,28,30.23,10.0,SSW,8.1,-,N/A,,Clear,210,2014-01-16 03:35:00
9:55 PM,47.1,15.4,28,30.22,10.0,SW,5.8,-,N/A,,Clear,220,2014-01-16 03:55:00
10:15 PM,48.0,15.6,27,30.22,10.0,SW,8.1,-,N/A,,Clear,230,2014-01-16 04:15:00
10:35 PM,49.1,15.4,26,30.21,10.0,WSW,13.8,17.3,N/A,,Clear,240,2014-01-16 04:35:00
10:55 PM,48.9,14.9,26,30.20,10.0,WSW,13.8,19.6,N/A,,Clear,240,2014-01-16 04:55:00
11:15 PM,48.7,14.4,25,30.20,10.0,WSW,13.8,-,N/A,,Clear,240,2014-01-16 05:15:00
11:35 PM,48.2,13.8,25,30.20,10.0,WSW,12.7,16.1,N/A,,Clear,240,2014-01-16 05:35:00
11:55 PM,48.0,13.1,25,30.20,10.0,WSW,10.4,-,N/A,,Clear,240,2014-01-16 05:55:00